Temperature
17 17 17 17 17 17 17 17 17 17 17 17 17 17 17 17 17 17 17 17 17 17 17 17 17 17 17 17 17 17 17 17 17 17 17 17 17 17 17 17 16 16 16
17 17 17 17 17 17 17 17 17 17 17 17 17 17 17 17 17 17 17 17 17 17 17 17 17 17 17 17 17 17 17 17 17 17 17 17 17 17 17 17 16 16 16
17 17 17 17 17 17 17 17 17 17 17 17 17 17 17 17 17 17 17 17 17 17 17 17 17 17 17 17 17 17 17 17 17 17 17 17 17 16 17 17 16 16 16
17 17 17 17 17 17 17 17 17 17 17 17 17 17 17 17 17 17 17 17 17 17 17 17 17 17 17 17 17 17 17 17 17 17 17 17 17 16 16 16 16 16 16
17 17 17 17 17 17 17 17 17 17 17 17 17 17 17 17 17 17 17 17 17 17 17 17 17 17 17 17 17 17 17 17 17 17 17 17 17 16 16 16 16 16 16
17 17 17 17 17 17 17 16 16 16 16 16 16 17 17 17 17 17 17 17 17 17 17 17 17 17 17 17 17 17 17 17 17 17 17 16 16 16 16 16 16 16 16
17 17 17 17 16 16 16 16 16 16 16 16 16 16 17 17 17 17 17 17 17 17 17 17 17 17 17 17 17 17 17 16 17 16 16 16 16 16 16 16 16 16 16
17 16 16 16 16 16 16 16 16 16 16 16 16 16 16 17 17 17 17 17 17 17 17 17 17 17 17 17 17 16 16 16 16 16 16 16 16 16 16 16 16 16 15
16 16 16 16 16 16 16 16 16 16 16 16 16 16 16 16 16 17 17 17 17 17 17 17 17 17 17 16 16 16 16 16 16 16 16 16 16 16 16 16 15 15 15
16 16 16 16 16 16 16 16 16 16 16 16 16 16 16 16 16 16 16 16 16 16 16 16 16 16 16 16 16 16 16 16 16 16 16 16 16 16 15 15 15 15 15
16 16 16 16 16 16 16 16 16 16 16 16 16 16 16 16 16 16 16 16 16 16 16 16 16 16 16 16 16 16 16 16 16 16 16 15 15 15 15 15 15 15 15
16 16 16 16 16 16 16 15 15 15 15 16 16 16 16 16 16 16 16 16 16 16 16 16 16 16 16 16 16 16 16 16 16 16 15 15 15 15 15 15 15 15 15
16 16 16 16 16 16 15 15 15 15 15 15 15 15 15 16 16 16 15 15 15 15 15 15 15 15 16 16 16 16 16 16 16 15 15 15 15 15 15 15 15 14 14
16 16 16 15 15 15 15 15 15 15 15 15 15 15 15 15 15 15 15 15 15 15 15 15 15 15 15 15 15 15 15 15 15 15 15 15 15 14 14 14 14 14 14
16 16 16 15 15 15 15 15 15 15 15 15 15 15 15 15 15 15 15 15 15 15 14 15 15 15 15 15 15 15 15 15 15 15 15 14 14 14 14 14 14 14 14
16 16 16 15 15 15 15 15 15 15 15 15 15 15 15 15 15 15 15 15 15 15 14 14 14 14 14 14 14 14 14 14 14 14 14 14 14 14 14 14 13 14 14
16 16 16 15 15 15 15 15 15 15 15 15 15 15 15 15 15 15 15 15 14 14 14 14 14 14 14 14 14 14 14 14 14 14 14 14 13 13 13 13 13 13 13
16 16 16 16 15 15 15 15 15 14 14 14 14 14 14 14 14 14 14 14 14 14 14 14 14 14 13 13 14 13 13 13 13 13 13 13 13 13 13 13 13 13 13
16 16 15 15 15 15 15 15 14 14 14 14 14 14 14 14 14 14 14 14 14 14 14 14 14 13 13 13 13 13 13 13 13 13 13 13 13 13 13 13 13 13 13
16 15 15 15 15 15 15 14 14 14 14 14 14 14 14 14 14 14 14 14 14 13 13 13 13 13 13 13 13 13 13 13 13 12 12 12 12 12 12 12 12 12 12
15 15 15 15 15 15 15 14 14 14 14 14 14 14 13 13 13 13 13 13 13 13 13 13 13 13 13 12 12 12 12 12 12 12 12 12 12 12 12 12 12 12 12
15 15 15 15 15 15 14 14 14 14 14 14 13 13 13 13 13 13 13 13 13 13 13 13 13 12 12 12 12 12 12 12 11 11 12 12 12 12 12 12 12 12 12
15 15 15 15 15 15 14 14 14 13 13 13 13 13 13 13 13 13 13 13 13 12 12 12 12 12 12 12 12 12 12 11 11 11 11 11 11 11 11 11 11 11 11
15 15 15 15 15 14 14 14 13 13 13 13 13 13 13 12 12 12 12 12 12 12 12 12 12 12 12 12 12 11 11 11 11 11 11 11 11 11 11 11 11 11 11
15 15 15 14 14 14 14 13 13 13 13 13 12 12 12 12 12 12 12 12 12 12 12 12 12 12 12 12 11 11 11 11 11 11 11 11 11 11 11 11 11 11 11
15 15 14 14 14 14 14 13 13 13 13 12 12 12 12 12 12 12 12 12 12 12 12 12 12 11 11 11 11 11 11 11 10 10 10 10 10 10 10 10 10 10 10
Wind_Speed
1 1 1 1 1 1 1 1 1 1 1 1 2 2 3 4 4 4 5 7 8 8 9 10 10 10 11 11 11 11 12 12 12 13 13 13 12 12 12 12 12 13 12
1 0 0 0 1 1 1 1 1 1 1 1 1 2 3 4 4 4 5 6 8 9 9 10 9 9 10 10 11 11 12 12 12 12 12 12 12 12 12 12 13 13 13
1 1 1 0 1 1 1 1 0 0 1 1 1 2 2 3 4 4 5 5 6 8 9 9 10 9 10 10 11 11 12 12 11 11 11 11 11 12 12 12 13 13 13
2 1 1 1 1 1 1 1 0 0 1 1 1 2 1 2 3 3 4 4 4 5 6 8 9 9 9 10 11 11 11 12 12 11 11 11 11 11 11 12 12 12 12
2 2 1 0 1 1 0 1 0 0 1 1 1 1 1 1 2 2 2 3 4 4 4 6 7 7 7 9 9 10 10 11 11 11 11 11 11 11 10 10 11 11 10
0 1 1 0 1 1 0 0 0 0 0 1 1 1 1 1 1 1 2 2 3 4 4 4 4 5 6 7 8 9 10 10 11 11 11 11 11 11 10 9 9 9 9
0 1 1 1 0 1 1 0 0 0 0 0 1 2 2 1 0 0 1 1 2 2 3 3 4 4 4 6 7 8 9 9 11 11 11 11 11 11 11 10 10 9 9
0 0 1 0 0 0 0 1 1 1 0 1 1 1 1 2 2 1 0 1 1 1 2 3 3 4 4 4 5 7 8 9 10 11 12 12 12 12 11 10 10 9 9
1 0 1 1 1 1 0 1 1 1 1 0 1 2 2 1 1 1 1 1 0 0 1 2 3 3 4 4 4 6 8 8 9 10 11 12 12 12 11 11 10 10 9
2 1 0 1 1 0 0 1 1 1 2 1 0 0 1 2 1 0 1 1 1 1 1 1 1 2 3 3 4 5 6 7 8 9 9 11 12 12 11 11 10 10 9
2 2 1 1 0 0 0 0 0 1 1 2 1 1 1 1 1 1 1 2 1 1 0 1 1 1 2 3 3 5 6 7 8 8 9 9 11 11 11 10 10 9 8
2 2 1 1 0 0 1 1 1 1 1 1 1 1 2 1 2 2 2 1 1 1 1 1 1 1 2 2 3 4 6 7 8 8 8 9 10 11 10 10 10 9 8
1 2 1 1 1 1 1 1 1 1 1 2 2 2 2 2 1 2 2 1 1 1 1 1 1 1 2 2 3 4 5 6 7 7 8 8 10 10 10 9 9 9 8
2 2 1 1 1 1 0 1 1 1 1 1 1 1 1 1 1 2 2 2 1 0 1 1 1 1 1 1 2 3 4 5 6 6 7 8 8 8 9 9 9 8 8
1 1 1 1 1 1 0 1 0 1 0 0 1 1 1 1 1 2 2 3 3 2 1 1 1 2 1 0 0 2 3 4 5 6 6 7 8 8 8 8 8 8 8
1 1 1 0 1 1 1 1 0 0 1 0 0 0 0 0 1 1 2 2 2 3 2 1 1 1 1 0 2 2 3 4 4 5 7 7 7 8 8 8 8 8 8
1 0 0 0 0 1 1 1 1 1 1 1 1 0 1 0 1 1 1 2 2 2 2 1 0 0 0 1 2 2 3 3 4 5 6 7 7 7 7 7 7 8 8
1 1 0 0 0 1 1 1 1 1 0 0 1 1 1 1 1 1 1 1 2 2 3 2 1 0 0 1 1 2 2 3 3 4 5 6 6 6 6 7 7 7 7
1 0 0 0 1 1 1 1 0 0 0 0 0 0 0 1 1 0 1 1 1 1 2 2 1 1 0 1 2 2 2 2 2 3 4 4 5 4 4 5 6 7 7
0 0 0 0 0 1 1 0 1 0 0 1 0 0 0 1 1 1 1 1 1 1 2 2 2 1 1 1 1 1 1 1 2 2 2 3 3 3 3 4 5 6 7
1 0 1 1 0 1 0 1 1 1 0 1 1 1 0 1 1 1 1 1 2 2 2 2 2 1 1 1 1 1 2 1 1 1 2 1 2 2 2 2 3 4 6
0 1 1 1 0 0 1 1 2 1 1 1 1 1 1 1 1 1 1 2 3 3 3 2 2 2 2 2 1 2 2 2 1 1 2 1 2 1 2 3 4 4 5
1 1 1 1 0 1 1 2 2 2 1 0 0 1 1 1 2 1 1 1 1 1 3 4 3 3 3 3 3 2 2 2 2 2 2 1 1 1 2 3 4 5 5
1 1 1 1 1 2 1 1 2 2 1 0 0 0 0 1 1 1 1 1 1 1 1 2 3 3 3 3 4 3 3 2 1 1 2 2 1 1 1 2 4 5 5
1 1 1 1 1 2 2 2 2 1 1 0 1 0 0 1 2 1 1 0 1 2 2 1 2 2 2 3 4 4 3 3 1 1 2 2 1 1 1 1 3 4 5
2 1 1 1 1 2 2 1 3 2 1 1 1 1 1 1 2 0 1 1 1 2 2 2 2 2 1 1 2 3 4 4 2 2 2 3 2 1 1 1 2 2 3
Wind_Direction
241 288 318 326 304 284 260 266 286 289 278 264 235 209 202 209 209 214 221 224 224 222 220 219 219 220 220 215 213 210 208 208 208 208 206 206 205 204 201 200 200 198 196
207 182 257 315 280 257 238 215 222 225 247 251 253 230 211 211 211 210 215 229 228 223 224 224 223 220 221 219 215 213 210 209 208 206 205 205 207 206 203 205 202 199 200
196 181 175 228 269 232 166 128 116 239 251 246 252 254 233 226 219 215 217 226 230 229 229 229 227 225 224 224 221 217 214 210 207 205 204 203 206 206 206 202 200 201 201
203 169 168 237 241 158 124 127 118 319 285 266 265 269 261 244 232 220 214 220 222 229 235 235 231 229 230 228 223 218 214 211 205 204 204 203 205 205 203 203 201 199 200
210 172 174 246 188 126 135 185 46 215 252 268 269 278 282 259 249 230 218 223 222 222 229 236 235 229 230 232 227 219 213 211 205 202 203 202 200 197 195 197 197 196 197
201 157 135 333 115 108 39 20 51 31 217 256 301 345 328 290 252 219 227 221 219 220 221 225 225 225 231 235 228 220 212 207 200 199 198 195 192 189 184 183 180 183 186
101 117 69 56 87 161 199 164 134 88 17 56 51 6 3 5 62 171 209 207 212 218 204 206 207 211 222 229 226 221 215 212 205 200 196 194 189 184 182 182 180 181 182
339 77 75 72 63 158 97 118 130 138 53 93 125 102 11 356 11 23 32 210 211 203 210 216 213 210 214 222 227 223 217 211 207 203 198 195 189 183 182 184 185 185 188
332 23 68 83 70 140 190 215 170 154 157 47 110 140 144 218 304 343 350 347 31 164 230 230 226 227 224 223 227 225 217 210 207 207 199 193 186 184 186 188 191 193 195
349 349 9 79 77 80 148 236 166 166 145 173 198 93 169 161 161 304 332 334 340 322 294 265 254 239 234 229 223 223 216 209 208 203 198 194 186 185 189 194 195 195 195
340 336 330 45 58 336 250 261 112 142 163 173 174 166 153 124 162 170 266 313 340 326 304 287 268 258 248 240 232 228 216 209 207 201 196 193 189 189 190 191 190 190 189
338 340 344 17 324 260 241 210 177 174 187 167 175 164 161 166 185 177 206 248 284 321 336 323 304 285 260 244 237 226 209 205 204 201 199 197 192 190 189 189 190 190 190
308 300 314 300 277 252 243 208 179 207 201 186 197 203 193 203 180 173 176 203 221 307 342 332 316 301 273 255 243 212 198 198 197 198 199 195 189 188 185 188 189 192 188
260 278 272 281 284 286 283 188 191 234 220 217 220 212 206 227 203 183 179 172 181 284 352 303 315 315 298 261 236 203 192 186 183 184 183 177 175 175 181 183 184 184 181
275 309 298 284 292 314 351 108 103 264 37 253 251 231 225 242 219 204 191 184 177 199 248 271 285 311 303 266 216 179 180 171 166 167 162 154 153 159 163 167 169 166 169
299 8 0 335 356 8 35 79 314 300 83 12 257 214 216 239 186 190 188 180 180 179 203 243 243 301 311 59 81 125 153 144 145 153 156 152 154 156 160 163 164 167 170
252 292 269 326 4 20 50 64 10 40 66 26 13 19 272 117 99 107 127 138 149 156 189 247 219 20 98 75 66 81 112 124 130 136 141 152 158 159 161 164 169 174 175
249 245 240 57 1 28 52 64 357 52 89 19 359 12 337 70 71 88 116 143 164 171 174 201 196 140 147 128 93 88 86 106 116 130 141 149 156 167 171 177 178 178 179
241 256 124 75 6 23 27 36 82 46 35 22 332 262 345 83 68 78 120 147 168 166 162 168 193 178 184 133 92 84 82 72 95 115 133 143 150 155 164 179 185 183 187
183 209 200 151 84 67 55 65 98 58 22 14 360 350 175 163 192 189 162 180 157 136 132 145 153 146 156 144 129 122 100 71 77 94 116 133 140 147 166 179 178 187 191
208 196 108 73 63 98 50 130 139 120 81 36 27 13 15 67 93 135 147 172 159 155 153 148 152 136 140 150 184 168 157 120 71 102 108 121 137 149 179 187 182 185 195
223 121 132 140 116 30 61 131 138 146 119 93 26 4 10 22 21 57 99 152 167 169 178 171 176 181 202 198 180 166 158 147 171 153 136 143 136 176 200 201 205 206 209
213 210 205 177 221 269 202 189 162 150 134 102 32 9 14 19 30 32 45 60 85 168 181 183 191 208 206 200 175 173 170 174 195 186 154 168 173 189 213 212 210 214 216
232 244 241 238 252 287 256 206 167 145 128 110 320 253 333 344 0 54 73 36 2 338 244 207 204 211 208 202 191 184 176 146 121 178 168 183 205 223 235 222 217 214 221
248 265 250 238 249 283 278 195 152 144 141 303 316 311 223 301 329 76 107 56 337 332 9 88 159 174 177 180 174 158 161 158 165 186 173 181 192 241 260 250 228 223 225
232 256 279 264 245 267 276 192 161 161 192 268 301 310 287 296 320 198 175 197 277 297 342 28 44 54 97 129 153 179 179 177 173 197 188 179 185 191 246 246 234 231 233
Height
1526 1526 1526 1526 1527 1527 1528 1528 1528 1529 1530 1530 1531 1532 1533 1534 1535 1536 1537 1539 1540 1541 1542 1543 1544 1545 1546 1547 1548 1550 1551 1552 1554 1555 1557 1558 1560 1561 1563 1564 1565 1567 1568
1525 1525 1525 1525 1526 1526 1527 1527 1527 1528 1528 1529 1530 1531 1532 1532 1533 1535 1536 1537 1538 1539 1540 1541 1542 1543 1544 1545 1546 1547 1549 1550 1552 1553 1555 1557 1558 1559 1561 1562 1563 1565 1566
1525 1525 1525 1525 1525 1525 1525 1526 1526 1527 1527 1527 1528 1529 1530 1531 1532 1533 1534 1535 1536 1537 1538 1539 1540 1541 1542 1543 1544 1545 1547 1548 1549 1551 1552 1554 1555 1557 1558 1560 1561 1563 1564
1524 1524 1524 1524 1524 1524 1525 1525 1525 1525 1525 1526 1526 1527 1528 1529 1530 1531 1532 1533 1534 1535 1536 1537 1538 1539 1540 1541 1541 1543 1544 1545 1546 1548 1550 1551 1553 1554 1556 1557 1559 1561 1562
1523 1523 1523 1523 1523 1523 1524 1524 1524 1524 1524 1524 1524 1525 1526 1527 1528 1529 1529 1530 1532 1533 1534 1535 1536 1537 1537 1538 1539 1540 1541 1542 1544 1545 1547 1548 1550 1552 1553 1555 1557 1558 1560
1522 1522 1522 1522 1522 1522 1522 1523 1523 1522 1522 1522 1523 1523 1524 1525 1526 1527 1527 1528 1529 1530 1531 1533 1533 1534 1535 1536 1537 1538 1539 1539 1541 1542 1544 1545 1547 1549 1551 1552 1554 1556 1557
1522 1522 1521 1521 1521 1521 1521 1521 1521 1521 1521 1521 1521 1521 1522 1523 1524 1525 1526 1527 1527 1528 1529 1530 1531 1532 1533 1533 1534 1535 1536 1537 1538 1539 1541 1543 1544 1546 1548 1550 1551 1553 1555
1522 1522 1521 1521 1521 1521 1520 1520 1520 1520 1520 1520 1521 1521 1521 1523 1523 1523 1524 1525 1526 1526 1527 1528 1529 1529 1530 1531 1532 1533 1534 1534 1535 1537 1538 1540 1542 1544 1545 1547 1549 1551 1552
1523 1522 1521 1521 1520 1520 1520 1519 1519 1519 1519 1520 1520 1521 1520 1520 1521 1522 1523 1523 1524 1524 1525 1526 1526 1527 1528 1529 1530 1531 1532 1533 1533 1534 1536 1537 1539 1541 1543 1545 1547 1548 1549
1522 1522 1521 1520 1520 1519 1519 1519 1518 1518 1519 1519 1519 1519 1520 1520 1520 1521 1522 1522 1522 1523 1523 1523 1524 1525 1526 1527 1527 1528 1529 1530 1531 1533 1534 1535 1537 1539 1540 1542 1544 1545 1546
1522 1521 1521 1519 1519 1519 1518 1518 1517 1517 1517 1517 1517 1518 1518 1518 1519 1519 1519 1520 1521 1521 1521 1522 1522 1523 1523 1524 1525 1526 1527 1528 1529 1530 1532 1533 1534 1536 1538 1539 1541 1542 1544
1521 1521 1520 1519 1518 1518 1517 1516 1516 1516 1516 1516 1516 1516 1516 1517 1517 1517 1518 1518 1519 1519 1520 1520 1520 1521 1521 1522 1522 1523 1524 1525 1526 1528 1529 1531 1532 1533 1535 1536 1538 1539 1541
1520 1520 1519 1518 1517 1517 1517 1516 1515 1515 1515 1515 1515 1515 1515 1515 1515 1515 1516 1516 1517 1517 1518 1518 1518 1519 1519 1520 1520 1521 1522 1523 1524 1525 1527 1528 1529 1531 1532 1534 1535 1536 1538
1519 1519 1518 1517 1517 1516 1516 1515 1514 1514 1513 1513 1513 1513 1513 1513 1513 1513 1514 1515 1515 1515 1516 1516 1517 1517 1517 1518 1518 1519 1519 1520 1522 1523 1525 1526 1527 1528 1530 1531 1532 1534 1535
1518 1518 1517 1516 1516 1515 1515 1514 1513 1512 1512 1512 1512 1511 1511 1511 1511 1511 1512 1513 1514 1513 1513 1514 1515 1515 1515 1515 1515 1516 1517 1518 1519 1521 1522 1523 1525 1526 1527 1528 1530 1532 1533
1517 1517 1516 1516 1515 1514 1514 1513 1512 1512 1511 1511 1510 1510 1509 1509 1509 1510 1510 1510 1511 1512 1512 1512 1513 1513 1513 1513 1513 1514 1515 1516 1517 1518 1520 1521 1522 1524 1525 1527 1528 1530 1531
1516 1516 1515 1514 1513 1513 1512 1512 1511 1511 1510 1510 1509 1509 1508 1508 1508 1508 1508 1508 1509 1510 1509 1510 1511 1511 1511 1511 1511 1512 1513 1513 1515 1516 1517 1518 1520 1522 1523 1525 1526 1527 1529
1515 1515 1514 1513 1512 1512 1511 1510 1510 1510 1509 1508 1508 1508 1507 1507 1506 1507 1507 1507 1507 1507 1508 1508 1508 1509 1509 1509 1509 1509 1510 1512 1513 1514 1515 1516 1518 1519 1521 1523 1524 1525 1526
1514 1513 1512 1512 1511 1511 1510 1510 1509 1509 1508 1507 1507 1506 1506 1505 1505 1505 1505 1505 1505 1506 1506 1506 1506 1507 1507 1508 1507 1508 1509 1510 1511 1512 1513 1514 1516 1517 1519 1520 1522 1523 1524
1512 1511 1511 1511 1510 1510 1509 1508 1508 1507 1506 1506 1505 1505 1505 1504 1504 1504 1504 1504 1504 1504 1504 1504 1504 1505 1505 1506 1506 1506 1507 1508 1508 1510 1511 1512 1513 1515 1516 1518 1519 1520 1521
1510 1510 1510 1509 1509 1508 1508 1507 1506 1506 1505 1505 1504 1504 1503 1503 1503 1502 1502 1502 1502 1502 1502 1502 1502 1502 1503 1503 1504 1504 1505 1506 1506 1507 1508 1510 1511 1512 1514 1515 1516 1517 1518
1509 1509 1508 1508 1507 1507 1506 1505 1505 1504 1504 1503 1503 1502 1502 1501 1501 1501 1500 1501 1501 1501 1500 1500 1500 1500 1501 1502 1502 1502 1503 1503 1504 1506 1506 1507 1509 1510 1511 1512 1513 1514 1515
1508 1507 1507 1506 1506 1505 1504 1504 1503 1503 1502 1502 1501 1501 1500 1500 1500 1500 1499 1499 1499 1499 1499 1499 1498 1499 1499 1499 1500 1500 1501 1502 1502 1503 1504 1504 1506 1507 1509 1510 1511 1511 1512
1506 1505 1505 1504 1504 1503 1503 1502 1502 1502 1501 1500 1500 1499 1499 1498 1498 1498 1498 1498 1497 1497 1497 1496 1497 1497 1498 1498 1498 1499 1499 1500 1501 1502 1502 1503 1504 1505 1506 1507 1508 1509 1509
1503 1503 1503 1502 1502 1501 1501 1501 1500 1500 1499 1499 1498 1498 1497 1497 1497 1497 1496 1496 1496 1496 1496 1495 1495 1496 1496 1496 1497 1497 1497 1498 1498 1499 1500 1501 1501 1502 1503 1504 1505 1506 1506
1501 1501 1501 1500 1500 1499 1499 1499 1499 1498 1497 1497 1497 1496 1496 1496 1496 1495 1494 1494 1493 1494 1494 1494 1493 1494 1494 1494 1495 1495 1495 1496 1496 1497 1498 1499 1499 1500 1500 1501 1502 1503 1503